Hourly Weather Kitovo

Today, 30 July, Friday

Time Temperature Precipitation Wind Pressure Humidity
00:00 +17°C° 0 mm 2 mps 736 mmHg 96%
01:00 +16°C° 0 mm 2 mps 736 mmHg 96%
02:00 +16°C° 0 mm 2 mps 736 mmHg 96%
03:00 +16°C° 0 mm 2 mps 736 mmHg 96%
04:00 +16°C° 0 mm 2 mps 736 mmHg 96%
05:00 +15°C° 0 mm 2 mps 736 mmHg 96%
06:00 +16°C° 0 mm 2 mps 736 mmHg 90%
07:00 +17°C° 0 mm 2 mps 736 mmHg 85%
08:00 +19°C° 0 mm 3 mps 736 mmHg 80%
09:00 +19°C° 0.1 mm 3 mps 736 mmHg 76%
10:00 +19°C° 0.1 mm 2 mps 736 mmHg 73%
11:00 +19°C° 0.1 mm 2 mps 736 mmHg 70%
12:00 +21°C° 0 mm 3 mps 736 mmHg 61%
13:00 +24°C° 0 mm 3 mps 736 mmHg 52%
14:00 +25°C° 0 mm 4 mps 735 mmHg 43%
15:00 +25°C° 0 mm 4 mps 735 mmHg 42%
16:00 +25°C° 0 mm 4 mps 735 mmHg 41%
17:00 +25°C° 0 mm 4 mps 734 mmHg 40%
18:00 +23°C° 0 mm 4 mps 734 mmHg 42%
19:00 +21°C° 0 mm 3 mps 734 mmHg 45%
20:00 +20°C° 0 mm 3 mps 734 mmHg 48%
21:00 +19°C° 0 mm 3 mps 734 mmHg 51%
22:00 +18°C° 0 mm 4 mps 734 mmHg 53%
23:00 +18°C° 0 mm 4 mps 734 mmHg 55%

Tomorrow, 31 July, Saturday

Time Temperature Precipitation Wind Pressure Humidity
00:00 +18°C° 0 mm 4 mps 733 mmHg 57%
01:00 +17°C° 0 mm 5 mps 733 mmHg 58%
02:00 +17°C° 0 mm 5 mps 733 mmHg 59%
03:00 +16°C° 0.1 mm 5 mps 733 mmHg 61%
04:00 +16°C° 0.1 mm 5 mps 733 mmHg 63%
05:00 +16°C° 0.1 mm 5 mps 733 mmHg 65%
06:00 +16°C° 0.1 mm 5 mps 733 mmHg 67%
07:00 +17°C° 0.1 mm 5 mps 733 mmHg 70%
08:00 +17°C° 0.1 mm 5 mps 734 mmHg 72%
09:00 +19°C° 0.1 mm 5 mps 734 mmHg 70%
10:00 +20°C° 0.1 mm 5 mps 734 mmHg 69%
11:00 +21°C° 0.1 mm 5 mps 735 mmHg 67%
12:00 +21°C° 0.3 mm 5 mps 735 mmHg 67%
13:00 +22°C° 0.3 mm 5 mps 735 mmHg 67%
14:00 +22°C° 0.3 mm 5 mps 736 mmHg 66%
15:00 +23°C° 0.2 mm 5 mps 736 mmHg 65%
16:00 +23°C° 0.2 mm 4 mps 736 mmHg 64%
17:00 +23°C° 0.2 mm 4 mps 736 mmHg 63%
18:00 +21°C° 0.1 mm 3 mps 736 mmHg 69%
19:00 +20°C° 0.1 mm 2 mps 736 mmHg 75%
20:00 +20°C° 0.1 mm 1 mps 736 mmHg 80%
21:00 +19°C° 0 mm 1 mps 736 mmHg 80%
22:00 +19°C° 0 mm 1 mps 737 mmHg 80%
23:00 +19°C° 0 mm 1 mps 737 mmHg 79%

Day after tomorrow, 1 August, Sunday

Time Temperature Precipitation Wind Pressure Humidity
00:00 +18°C° 0 mm 2 mps 736 mmHg 79%
01:00 +17°C° 0 mm 2 mps 736 mmHg 79%
02:00 +17°C° 0 mm 2 mps 736 mmHg 79%
03:00 +17°C° 0.1 mm 2 mps 736 mmHg 81%
04:00 +17°C° 0.1 mm 2 mps 736 mmHg 82%
05:00 +17°C° 0.1 mm 3 mps 736 mmHg 84%
06:00 +18°C° 0.1 mm 3 mps 736 mmHg 84%
07:00 +18°C° 0.1 mm 3 mps 736 mmHg 85%
08:00 +19°C° 0.1 mm 3 mps 736 mmHg 86%
09:00 +20°C° 0.1 mm 3 mps 736 mmHg 79%
10:00 +21°C° 0.1 mm 4 mps 736 mmHg 72%
11:00 +23°C° 0.1 mm 4 mps 736 mmHg 65%
12:00 +25°C° 0 mm 4 mps 736 mmHg 56%
13:00 +27°C° 0 mm 5 mps 736 mmHg 46%
14:00 +28°C° 0 mm 5 mps 736 mmHg 37%
15:00 +28°C° 0 mm 4 mps 736 mmHg 38%
16:00 +27°C° 0 mm 4 mps 736 mmHg 40%
17:00 +27°C° 0 mm 4 mps 736 mmHg 41%
18:00 +25°C° 0 mm 3 mps 736 mmHg 50%
19:00 +23°C° 0 mm 2 mps 737 mmHg 58%
20:00 +20°C° 0 mm 2 mps 737 mmHg 67%
21:00 +19°C° 0 mm 2 mps 737 mmHg 71%
22:00 +18°C° 0 mm 2 mps 737 mmHg 76%
23:00 +18°C° 0 mm 1 mps 737 mmHg 80%

2 August, Monday

Time Temperature Precipitation Wind Pressure Humidity
00:00 +18°C° 0 mm 1 mps 737 mmHg 79%
01:00 +18°C° 0 mm 1 mps 737 mmHg 79%
02:00 +17°C° 0 mm 2 mps 737 mmHg 79%
03:00 +17°C° 0 mm 2 mps 737 mmHg 81%
04:00 +17°C° 0 mm 2 mps 737 mmHg 82%
05:00 +17°C° 0 mm 2 mps 737 mmHg 84%
06:00 +18°C° 0.1 mm 1 mps 737 mmHg 85%
07:00 +18°C° 0.1 mm 1 mps 737 mmHg 85%
08:00 +18°C° 0.1 mm 1 mps 736 mmHg 85%
09:00 +18°C° 1.1 mm 1 mps 736 mmHg 89%
10:00 +18°C° 1.1 mm 1 mps 736 mmHg 93%
11:00 +16°C° 1.1 mm 1 mps 736 mmHg 97%
12:00 +16°C° 2.7 mm 1 mps 736 mmHg 97%
13:00 +16°C° 2.7 mm 1 mps 735 mmHg 98%
14:00 +16°C° 2.7 mm 1 mps 735 mmHg 98%
15:00 +16°C° 1.9 mm 1 mps 735 mmHg 98%
16:00 +15°C° 1.9 mm 2 mps 735 mmHg 98%
17:00 +15°C° 1.9 mm 2 mps 735 mmHg 98%
18:00 +15°C° 0.1 mm 2 mps 735 mmHg 98%
19:00 +15°C° 0.1 mm 2 mps 735 mmHg 98%
20:00 +15°C° 0.1 mm 2 mps 735 mmHg 97%
21:00 +14°C° 0 mm 2 mps 735 mmHg 97%
22:00 +14°C° 0 mm 2 mps 736 mmHg 96%
23:00 +13°C° 0 mm 2 mps 736 mmHg 96%

3 August, Tuesday

Time Temperature Precipitation Wind Pressure Humidity
00:00 +13°C° 0 mm 2 mps 736 mmHg 96%
01:00 +12°C° 0 mm 3 mps 736 mmHg 97%
02:00 +12°C° 0 mm 3 mps 736 mmHg 97%
03:00 +12°C° 0 mm 3 mps 736 mmHg 97%
04:00 +12°C° 0 mm 3 mps 737 mmHg 97%
05:00 +13°C° 0 mm 2 mps 737 mmHg 98%
06:00 +13°C° 0 mm 3 mps 738 mmHg 92%
07:00 +14°C° 0 mm 3 mps 738 mmHg 86%
08:00 +16°C° 0 mm 3 mps 738 mmHg 81%
09:00 +18°C° 0 mm 3 mps 739 mmHg 73%
10:00 +19°C° 0 mm 4 mps 739 mmHg 65%
11:00 +20°C° 0 mm 4 mps 739 mmHg 56%
12:00 +20°C° 0.1 mm 4 mps 739 mmHg 57%
13:00 +20°C° 0.1 mm 4 mps 740 mmHg 57%
14:00 +20°C° 0.1 mm 3 mps 740 mmHg 58%
15:00 +20°C° 0 mm 3 mps 740 mmHg 57%
16:00 +20°C° 0 mm 3 mps 740 mmHg 56%
17:00 +20°C° 0 mm 2 mps 741 mmHg 55%
18:00 +18°C° 0 mm 2 mps 741 mmHg 61%
19:00 +17°C° 0 mm 2 mps 741 mmHg 68%
20:00 +15°C° 0 mm 1 mps 742 mmHg 74%
21:00 +14°C° 0 mm 1 mps 742 mmHg 77%
22:00 +13°C° 0 mm 1 mps 742 mmHg 79%
23:00 +13°C° 0 mm 1 mps 743 mmHg 82%

4 August, Wednesday

Time Temperature Precipitation Wind Pressure Humidity
00:00 +12°C° 0 mm 1 mps 743 mmHg 82%
01:00 +12°C° 0 mm 1 mps 743 mmHg 82%
02:00 +11°C° 0 mm 0 mps 744 mmHg 82%
03:00 +11°C° 0 mm 0 mps 744 mmHg 82%
04:00 +12°C° 0 mm 0 mps 744 mmHg 81%
05:00 +12°C° 0 mm 0 mps 744 mmHg 81%
06:00 +14°C° 0 mm 1 mps 745 mmHg 75%
07:00 +16°C° 0 mm 1 mps 745 mmHg 70%
08:00 +18°C° 0 mm 1 mps 745 mmHg 64%
09:00 +20°C° 0 mm 1 mps 745 mmHg 58%
10:00 +21°C° 0 mm 1 mps 745 mmHg 52%
11:00 +23°C° 0 mm 2 mps 745 mmHg 45%
12:00 +23°C° 0 mm 1 mps 745 mmHg 44%
13:00 +24°C° 0 mm 1 mps 745 mmHg 43%
14:00 +24°C° 0 mm 1 mps 745 mmHg 41%
15:00 +24°C° 0 mm 1 mps 745 mmHg 42%
16:00 +24°C° 0 mm 2 mps 745 mmHg 44%
17:00 +24°C° 0 mm 2 mps 745 mmHg 45%
18:00 +21°C° 0 mm 2 mps 745 mmHg 53%
19:00 +19°C° 0 mm 2 mps 745 mmHg 61%
20:00 +17°C° 0 mm 2 mps 745 mmHg 70%
21:00 +17°C° 0 mm 2 mps 745 mmHg 69%
22:00 +17°C° 0 mm 2 mps 745 mmHg 68%
23:00 +17°C° 0 mm 2 mps 745 mmHg 67%
Show more